CZ-6A DEB, 61294

Orbit data source: Space-Track

CZ-6A DEB, 61294 is space debris in LEO originally from a launch on Tue, 06 Aug 2024 UTC launched from the Taiyaun Space Center, China (TSC). Debris objects in space refer to the collection of defunct objects orbiting the Earth. Examples of debris include non-operational satellites, rocket bodies, and fragments generated from explosions, collisions, or faulty payload assembly.

Loading next visibility...
Identifier
61294, 2024-140TF
Orbit
LEO
Country
Flag of CNCN / PRC
Related business
Manufacturer
SAST
Mission
Spacecraft
Bus & Motor
Unknown
Mass
Unknown
Launch date (UTC)
2024-08-06 (2 years ago)
Launch vehicle
Unknown
Launch site
Taiyaun Space Center, China (TSC)
Object type
Payload
Rocket body
Debris
Shape & HBR
Unknown shape, 0.1 m
Radar Cross Section
Medium (>0.1 m² and <1 m²)

Expand to show TLE details & history
Last TLE update: 16 hours ago

TLE from 16 hours ago
0 CZ-6A DEB
1 61294U 24140TF  26171.22939519  .00001404  00000-0  38429-3 0  9998
2 61294  88.9054 263.3250 0052711 289.3938  70.1573 14.45915135 95349
Epoch: 2026-06-20T05:30Z
TLE epoch observation values (Epoch: 2026-06-20T05:30:19.744Z)
Latitude
-0.00005°
Longitude
-87.70428°
Altitude
729.55 km
Speed
7.497 km/s
True Right ascension
17h 33m 17s
True Declination
0° 00' 00"
Sunlit
Object was in full shadow at epoch
Visualization orbit readout
Latitude
Unknown
Longitude
Unknown
Altitude
Unknown
Speed
Unknown
Apparent Right ascension
Unknown
Apparent Declination
Unknown
Sunlit
N/A
Visualization observer readout
Local Sidereal Time
08:33:24
Azimuth
Unknown
Elevation
Unknown
Doppler factor
Unknown
Orbital elements
Apogee altitude
773.435 km
Perigee altitude
698.437 km
Semi-major axis
7,114.073 km
Eccentricity
0.00527
Inclination
88.9054°
RAAN
263.325°
Arg. of periapsis
289.3938°
True anomaly
70.72673°
Mean anomaly
70.1573°
Eccentric anomaly
70.44189°
Mean motion
3.61714 °/min
Orbital period
99.53 mins
BSTAR
0.00038429
Loading maneuver chart data...
Computing Atmospheric mass density...
Loading historical data...
Loading historical data...
Loading historical data...
Loading historical data...
Loading historical data...
Loading historical data...
Loading historical data...

Documentation

Showing up to 5 results
|